DW5595 Weather Reports


Display with metric or nautical units.
time (UTC)temp
F
wind
direction
speed
MPH
gust
MPH
rain 1hr
in
rain 24hr
in
rain mn
in
humidity
%
barometer
mb
20260508071525 45 9 0.0 0.0 0.00 0.52 0.00 94 1014.9
20260508064514 46 360 0.0 0.0 0.00 0.52 0.00 94 1014.4
20260508063009 46 360 0.0 1.0 0.00 0.52 0.00 93 1014.4
20260508061522 47 158 0.0 0.0 0.00 0.54 0.00 93 1014.4
20260508060021 47 158 0.0 0.0 0.00 0.54 0.00 93 1014.5
20260508053020 48 158 0.0 0.0 0.00 0.56 0.00 93 1014.4
20260508051525 48 158 0.0 0.0 0.00 0.56 0.00 93 1014.2
20260508050015 48 158 0.0 0.0 0.00 0.57 0.00 93 1014.1
20260508044519 49 158 0.0 1.0 0.00 0.57 0.00 93 1014.1
20260508041520 49 163 0.0 2.0 0.00 0.58 0.00 92 1013.8
20260508040021 50 169 0.0 0.0 0.00 0.58 0.00 90 1014.1
20260508034519 51 169 0.0 0.0 0.00 0.58 0.58 89 1013.9
20260508031517 51 178 0.0 0.0 0.00 0.58 0.58 88 1014.1
20260508030020 53 178 0.0 0.0 0.00 0.60 0.58 84 1013.9
20260508024523 56 283 0.0 2.0 0.00 0.61 0.58 69 1013.5
20260508023024 56 310 0.0 2.0 0.00 0.61 0.58 69 1013.5
20260508021522 57 13 1.0 8.0 0.00 0.62 0.58 69 1013.3
20260508020017 57 321 1.0 5.0 0.00 0.63 0.58 67 1013.0
20260508014515 57 360 0.0 0.0 0.00 0.65 0.58 71 1012.9
20260508013011 59 11 0.0 8.0 0.00 0.67 0.58 64 1012.4
20260508011537 59 312 3.0 8.0 0.00 0.68 0.58 61 1012.2
20260508003024 61 338 3.0 10.0 0.00 0.71 0.58 63 1011.4
20260508000016 63 44 6.0 12.0 0.00 0.79 0.58 62 1011.0
20260507234522 63 352 3.0 8.0 0.00 0.80 0.58 64 1010.9
20260507233028 64 296 4.0 9.0 0.00 0.81 0.58 67 1010.6
20260507231506 63 99 0.0 0.0 0.00 0.81 0.58 89 1010.6
20260507230023 63 13 1.0 2.0 0.00 0.82 0.58 86 1010.1
20260507224524 63 27 1.0 8.0 0.00 0.83 0.58 85 1009.9
20260507223022 64 22 1.0 4.0 0.00 0.83 0.58 84 1009.6
20260507221516 65 138 0.0 3.0 0.00 0.83 0.58 85 1009.3
20260507220021 65 30 1.0 3.0 0.00 0.83 0.58 83 1009.1
20260507214510 65 15 3.0 8.0 0.00 0.83 0.58 83 1008.9
20260507211524 68 84 1.0 10.0 0.00 0.83 0.58 78 1008.1
20260507210024 75 40 5.0 14.0 0.00 0.83 0.58 65 1007.7
20260507203016 72 147 0.0 6.0 0.00 0.83 0.58 80 1007.2
20260507201516 72 144 0.0 6.0 0.00 0.83 0.58 85 1007.3
20260507200018 71 171 0.0 3.0 0.08 0.83 0.58 87 1007.2
20260507194524 69 155 0.0 1.0 0.33 0.83 0.58 90 1007.5
20260507193030 66 141 1.0 3.0 0.33 0.83 0.58 92 1007.8
20260507191526 65 146 2.0 6.0 0.33 0.83 0.58 89 1008.0
20260507190020 69 133 3.0 4.0 0.25 0.75 0.50 85 1008.1
20260507184521 73 185 0.0 5.0 0.00 0.50 0.25 75 1008.3
20260507183032 74 178 0.0 10.0 0.00 0.50 0.25 73 1007.8
20260507181512 74 107 4.0 8.0 0.00 0.50 0.25 73 1008.1
20260507180036 73 133 2.0 9.0 0.00 0.50 0.25 78 1008.1
20260507174531 73 260 1.0 5.0 0.00 0.50 0.25 81 1008.2
20260507173026 73 138 1.0 5.0 0.00 0.50 0.25 77 1008.4
20260507171527 72 131 1.0 6.0 0.00 0.50 0.25 79 1008.6
20260507170022 70 180 2.0 6.0 0.00 0.50 0.25 85 1008.7
20260507164516 69 300 0.0 3.0 0.00 0.50 0.25 83 1009.0
20260507163019 68 269 1.0 6.0 0.00 0.52 0.25 89 1009.2
20260507161538 68 161 2.0 6.0 0.00 0.55 0.25 88 1009.1
20260507154532 67 184 0.0 3.0 0.00 0.55 0.25 91 1009.2
20260507153023 66 151 1.0 4.0 0.00 0.55 0.25 92 1008.8
20260507150022 64 175 0.0 2.0 0.00 0.55 0.25 96 1009.4
20260507144516 63 172 0.0 2.0 0.00 0.55 0.25 96 1009.5
20260507143025 63 144 0.0 3.0 0.01 0.55 0.25 96 1009.9
20260507141512 63 166 0.0 4.0 0.02 0.55 0.25 96 1009.9
20260507140016 63 163 0.0 1.0 0.03 0.55 0.25 96 1009.9
20260507134521 63 131 0.0 2.0 0.04 0.55 0.25 96 1009.7
20260507133010 63 134 0.0 2.0 0.05 0.54 0.24 96 1009.6
20260507131527 62 323 0.0 1.0 0.07 0.52 0.23 96 1009.5
20260507130017 62 121 0.0 0.0 0.08 0.52 0.22 96 1009.1
20260507124519 62 121 0.0 0.0 0.10 0.51 0.21 96 1009.3
20260507123019 62 121 0.0 0.0 0.10 0.49 0.19 96 1009.5
20260507121512 62 121 0.0 0.0 0.07 0.46 0.16 96 1009.9
20260507120008 62 328 0.0 1.0 0.05 0.44 0.14 96 1011.1
20260507114505 62 144 0.0 0.0 0.03 0.41 0.11 96 1011.2
20260507113024 62 127 0.0 0.0 0.01 0.39 0.09 96 1010.7
20260507111523 62 127 0.0 0.0 0.01 0.39 0.09 96 1009.9
20260507110020 62 304 1.0 2.0 0.01 0.39 0.09 96 1010.4
20260507104515 61 146 1.0 2.0 0.00 0.38 0.08 96 1010.2
20260507103013 61 153 0.0 0.0 0.00 0.38 0.08 96 1010.0
20260507101517 61 134 0.0 2.0 0.00 0.38 0.08 96 1009.4
20260507100029 61 150 0.0 1.0 0.00 0.38 0.08 96 1009.8
20260507094524 61 150 0.0 0.0 0.01 0.38 0.08 96 1009.9
20260507093021 61 150 0.0 0.0 0.01 0.38 0.08 96 1009.9
20260507091519 61 150 0.0 3.0 0.01 0.38 0.08 96 1010.0
20260507090020 61 150 0.0 0.0 0.01 0.38 0.08 96 1009.9
20260507084530 61 150 0.0 2.0 0.00 0.37 0.07 96 1010.2
20260507083010 61 311 0.0 0.0 0.00 0.37 0.07 96 1010.5
20260507081523 61 148 0.0 0.0 0.01 0.37 0.07 96 1009.9
20260507080027 61 182 0.0 0.0 0.02 0.37 0.07 96 1009.9
20260507074535 62 292 0.0 0.0 0.02 0.37 0.07 96 1009.9
20260507073021 61 292 0.0 0.0 0.02 0.37 0.07 96 1010.0